TimeMST,TemperatureF,Dew PointF,Humidity,Sea Level PressureIn,VisibilityMPH,Wind Direction,Wind SpeedMPH,Gust SpeedMPH,PrecipitationIn,Events,Conditions,WindDirDegrees,DateUTC
12:53 AM,15.1,-9.0,34,30.14,10.0,SW,5.8,-,N/A,,Clear,220,2012-12-20 07:53:00
1:53 AM,12.0,-8.0,41,30.17,10.0,SW,4.6,-,N/A,,Clear,220,2012-12-20 08:53:00
2:53 AM,17.1,-7.1,34,30.15,10.0,SSW,5.8,-,N/A,,Clear,200,2012-12-20 09:53:00
3:53 AM,16.0,-4.0,41,30.14,10.0,SSW,5.8,-,N/A,,Clear,200,2012-12-20 10:53:00
4:53 AM,21.0,-2.0,36,30.12,10.0,South,10.4,-,N/A,,Clear,170,2012-12-20 11:53:00
5:53 AM,21.0,-2.9,35,30.13,10.0,SW,4.6,-,N/A,,Clear,220,2012-12-20 12:53:00
6:53 AM,19.0,-2.0,40,30.14,10.0,Calm,Calm,-,N/A,,Clear,0,2012-12-20 13:53:00
7:53 AM,19.9,1.0,44,30.17,10.0,WSW,4.6,-,N/A,,Clear,240,2012-12-20 14:53:00
8:53 AM,23.0,3.9,44,30.16,10.0,Calm,Calm,-,N/A,,Clear,0,2012-12-20 15:53:00
9:53 AM,32.0,1.9,28,30.15,10.0,Calm,Calm,-,N/A,,Clear,0,2012-12-20 16:53:00
10:53 AM,30.0,5.0,35,30.15,10.0,ESE,3.5,-,N/A,,Clear,110,2012-12-20 17:53:00
11:53 AM,35.1,6.1,30,30.12,10.0,Calm,Calm,-,N/A,,Clear,0,2012-12-20 18:53:00
12:53 PM,39.9,6.1,25,30.10,10.0,NE,4.6,-,N/A,,Clear,50,2012-12-20 19:53:00
1:53 PM,42.1,5.0,22,30.10,10.0,East,4.6,-,N/A,,Clear,80,2012-12-20 20:53:00
2:53 PM,42.1,6.1,23,30.09,10.0,ENE,3.5,-,N/A,,Clear,60,2012-12-20 21:53:00
3:53 PM,37.0,6.1,28,30.09,10.0,South,5.8,-,N/A,,Clear,190,2012-12-20 22:53:00
4:53 PM,37.0,5.0,26,30.08,10.0,SSW,3.5,-,N/A,,Clear,200,2012-12-20 23:53:00
5:53 PM,36.0,5.0,27,30.07,10.0,Calm,Calm,-,N/A,,Clear,0,2012-12-21 00:53:00
6:53 PM,28.9,6.1,38,30.11,10.0,WNW,4.6,-,N/A,,Clear,300,2012-12-21 01:53:00
7:53 PM,30.9,5.0,33,30.09,10.0,NNW,5.8,-,N/A,,Clear,330,2012-12-21 02:53:00
8:53 PM,30.0,6.1,36,30.09,10.0,Variable,4.6,-,N/A,,Clear,0,2012-12-21 03:53:00
9:53 PM,33.1,5.0,31,30.04,10.0,Calm,Calm,-,N/A,,Clear,0,2012-12-21 04:53:00
10:53 PM,34.0,3.9,28,30.06,10.0,WNW,4.6,-,N/A,,Clear,290,2012-12-21 05:53:00
11:53 PM,35.1,3.9,27,30.04,10.0,SSE,6.9,-,N/A,,Clear,160,2012-12-21 06:53:00